Starlink 3936

operational
NORAD ID: 52674 Int'l Des: 2022-053 Owner: SPXS Country: US Constellation: starlink
LEOCIRCULAR

Über Starlink 3936

Beschreibung wird geladen...

Live-Position

3D-Globus wird geladen...

Nächste Überflüge

Höhenverlauf

Altitude vs Time

uPlot chart will show altitude changes over time

Zweizeiliger Elementsatz

1 52674U 22053U 25257.31967556 -.00000196 00000-0 57579-5 0 9994
2 52674 53.2157 225.8769 0001441 89.3968 270.7189 15.08839104184423
Epoch: 14. Sept. 2025 • Age: 25 hours

Aktueller Status

Höhe 559.2 km
Geschwindigkeit 7.58 km/s
Subsatellitenpunkt -52.93°S, 15.78°E
Startdatum 18. Mai 2022
Alter 3.3 years
Typ internet

Technische Details

Klassifizierung Payload
Masse 297.00 kg
Trockenmasse 275.00 kg
Gesamtmasse 297.00 kg
Länge 0.20 m
Durchmesser 2.80 m
Spannweite 9.00 m
Form Box + pan
Hersteller SPXS
Bus-Typ Starlink
Phasenstatus In Orbit
Besitzer/Staat SPXS/US

Große Konstellationen

Loading constellations...